Location: Rounton
(54.4000°N, 1.3500°W)
Time: 20:50:38
(UTC+00:00)

A-11 Canister half - Pass Details

Date: 06 December 2021
Orbit: 1516 x 1684 km, 47.2° (Epoch: 19 January)

Event Time Altitude Azimuth Distance (km) Brightness Sun altitude
Rises 06:27:51 0° 217° (SW) 4,746 11.4 -13.8°
Reaches altitude 10° 06:31:11 10° 209° (SSW) 3,788 11.0 -13.3°
Maximum altitude 06:39:39 36° 147° (SSE) 2,357 10.5 -12.2°
Drops below altitude 10° 06:48:24 10° 86° (E) 3,911 12.2 -11.0°
Sets 06:51:54 0° 78° (ENE) 4,917 12.6 -10.5°
